Phnom Penh, Cambodia

4:55 PM ICT on December 08, 2016 (GMT +0700)
Pochentong International

Weather History for VDPP - September, 2013

Change the Weather History Date:

Saturday, September 21, 2013

  Actual Average Record
Temperature  
Mean Temperature 80 °F -  
Max Temperature 86 °F 85 °F 95 °F (2010)
Min Temperature 75 °F 76 °F 75 °F (2005)
Cooling Degree Days 16    
Growing Degree Days 30 (Base 50)    
Moisture  
Dew Point 73 °F    
Average Humidity 77    
Maximum Humidity 95    
Minimum Humidity 62    
Precipitation  
Precipitation 0.00 in - - ()
Sea Level Pressure  
Sea Level Pressure 29.70 in    
Wind  
Wind Speed 9 mph ()    
Max Wind Speed 18 mph    
Max Gust Speed -    
Visibility 5.8 miles    
Events Rain    
Averages and records for this station are not official NWS values.
T = Trace of Precipitation, MM = Missing Value Source: Averaged Metar Reports

Daily Weather History Graph

Daily Weather History Graph

Search for Another Location

Airport or City:

Trip Planner

Search our weather history database for the weather conditions in past years. The results will help you decide how hot, cold, wet, or windy it might be!

Date:

Astronomy

Sep. 21, 2013 Rise Set
Actual Time 5:49 AM ICT 5:57 PM ICT
Civil Twilight 5:28 AM ICT 6:18 PM ICT
Nautical Twilight 5:04 AM ICT 6:43 PM ICT
Astronomical Twilight 4:39 AM ICT 7:07 PM ICT
Moon 7:18 PM ICT (9/21) 7:08 AM ICT (9/21)
Length of Visible Light 12h 49m
Length of Day
12h 07m
Waning Gibbous, 96% of the Moon is Illuminated
Sep 21
Waning Gibbous
Sep 27
Last Quarter
Oct 5
New
Oct 12
First Quarter
Oct 19
Full

Hourly Weather History & Observations

Time (ICT) Temp. Heat Index Dew Point Humidity Pressure Visibility Wind Dir Wind Speed Gust Speed Precip Events Conditions
12:00 AM 77.0 °F - 73.4 °F 89% 29.71 in 5.0 mi WSW 6.9 mph - N/A Rain Light Rain
12:30 AM 78.8 °F - 73.4 °F 83% 29.74 in 5.0 mi WSW 6.9 mph - N/A Rain Light Rain
1:00 AM 78.8 °F - 73.4 °F 83% 29.74 in 5.0 mi WSW 9.2 mph - N/A Rain Light Rain
6:00 AM 77.0 °F - 73.4 °F 89% 29.68 in 5.6 mi SSW 6.9 mph - N/A   Mostly Cloudy
6:30 AM 77.0 °F - 73.4 °F 89% 29.68 in 5.6 mi SSW 6.9 mph - N/A   Mostly Cloudy
7:00 AM 76 °F - 75 °F 95% 29.75 in 6 mi Calm Calm - -   Partly Cloudy
7:00 AM 77.0 °F - 73.4 °F 89% 29.71 in 5.6 mi SSW 6.9 mph - N/A   Mostly Cloudy
7:30 AM 78.8 °F - 73.4 °F 83% 29.71 in 5.6 mi SSW 8.1 mph - N/A   Mostly Cloudy
8:00 AM 78.8 °F - 73.4 °F 83% 29.74 in 6.2 mi SSW 9.2 mph - N/A   Mostly Cloudy
8:30 AM 80.6 °F 86.2 °F 75.2 °F 84% 29.74 in 6.2 mi South 8.1 mph - N/A   Mostly Cloudy
9:00 AM 80.6 °F 86.2 °F 75.2 °F 84% 29.74 in 6.2 mi SW 8.1 mph - N/A   Scattered Clouds
9:30 AM 80.6 °F 86.2 °F 75.2 °F 84% 29.77 in 6.2 mi SSW 9.2 mph - N/A   Scattered Clouds
10:00 AM 82.4 °F 88.2 °F 73.4 °F 74% 29.77 in 6.2 mi WSW 11.5 mph - N/A   Scattered Clouds
10:30 AM 84.2 °F 90.9 °F 73.4 °F 70% 29.77 in 6.2 mi WSW 12.7 mph - N/A   Scattered Clouds
11:00 AM 86.0 °F 91.8 °F 71.6 °F 62% 29.74 in 6.2 mi WSW 15.0 mph - N/A   Scattered Clouds
11:30 AM 84.2 °F 90.9 °F 73.4 °F 70% 29.74 in 6.2 mi West 17.3 mph - N/A   Scattered Clouds
12:00 PM 84.2 °F 90.9 °F 73.4 °F 70% 29.74 in 6.2 mi WSW 11.5 mph - N/A   Scattered Clouds
12:30 PM 84.2 °F 89.6 °F 71.6 °F 66% 29.71 in 6.2 mi SW 16.1 mph - N/A   Scattered Clouds
1:00 PM 84.2 °F 89.6 °F 71.6 °F 66% 29.71 in 6.2 mi SW 18.4 mph - N/A   Scattered Clouds
1:30 PM 82.4 °F 88.2 °F 73.4 °F 74% 29.71 in 6.2 mi SW 13.8 mph - N/A   Scattered Clouds
2:00 PM 82.4 °F 87.2 °F 71.6 °F 70% 29.68 in 6.2 mi SW 10.4 mph - N/A   Scattered Clouds
2:30 PM 84.2 °F 89.6 °F 71.6 °F 66% 29.68 in 6.2 mi WSW 13.8 mph - N/A   Scattered Clouds
3:00 PM 82.4 °F 87.2 °F 71.6 °F 70% 29.65 in 6.2 mi WSW 11.5 mph - N/A   Scattered Clouds
3:30 PM 82.4 °F 87.2 °F 71.6 °F 70% 29.65 in 6.2 mi SW 11.5 mph - N/A   Scattered Clouds
4:00 PM 82.4 °F 88.2 °F 73.4 °F 74% 29.65 in 6.2 mi SW 11.5 mph - N/A   Scattered Clouds
4:30 PM 80.6 °F 85.4 °F 73.4 °F 79% 29.65 in 6.2 mi SW 11.5 mph - N/A   Scattered Clouds
5:00 PM 80.6 °F 85.4 °F 73.4 °F 79% 29.65 in 6.2 mi SW 11.5 mph - N/A   Scattered Clouds
5:30 PM 80.6 °F 85.4 °F 73.4 °F 79% 29.65 in 6.2 mi SW 12.7 mph - N/A   Mostly Cloudy
6:00 PM 80.6 °F 84.6 °F 71.6 °F 74% 29.65 in 6.2 mi SW 13.8 mph - N/A   Mostly Cloudy
6:30 PM 80.6 °F 84.6 °F 71.6 °F 74% 29.65 in 5.6 mi SSW 8.1 mph - N/A   Mostly Cloudy
7:00 PM 80.6 °F 84.6 °F 71.6 °F 74% 29.68 in 5.6 mi SW 10.4 mph - N/A   Mostly Cloudy
7:30 PM 80.6 °F 84.6 °F 71.6 °F 74% 29.68 in 5.6 mi SW 17.3 mph - N/A   Mostly Cloudy
8:00 PM 80.6 °F 84.6 °F 71.6 °F 74% 29.68 in - WSW 13.8 mph - N/A Rain Light Rain
8:30 PM 80.6 °F 84.6 °F 71.6 °F 74% 29.68 in 5.0 mi WSW 12.7 mph - N/A   Mostly Cloudy
9:00 PM 80.6 °F 84.6 °F 71.6 °F 74% 29.71 in 5.0 mi SW 12.7 mph - N/A   Mostly Cloudy
9:30 PM 80.6 °F 84.6 °F 71.6 °F 74% 29.74 in 5.0 mi WSW 11.5 mph - N/A   Mostly Cloudy
10:00 PM 80.6 °F 84.6 °F 71.6 °F 74% 29.71 in 5.0 mi SW 9.2 mph - N/A   Mostly Cloudy
10:30 PM 80.6 °F 84.6 °F 71.6 °F 74% 29.71 in 5.0 mi SW 11.5 mph - N/A   Mostly Cloudy
11:00 PM 80.6 °F 84.6 °F 71.6 °F 74% 29.71 in 5.6 mi SW 11.5 mph - N/A   Mostly Cloudy
11:30 PM 78.8 °F - 73.4 °F 83% 29.71 in 5.6 mi SW 12.7 mph - N/A   Mostly Cloudy